FW1825 Weather Reports


Display with metric or nautical units.
time (UTC)temp
F
wind
direction
speed
MPH
gust
MPH
rain 1hr
in
rain 24hr
in
rain mn
in
humidity
%
barometer
mb
20260510033049 49 224 6.0 9.0 0.12 0.30 0.30 88 1008.9
20260510032545 49 245 8.0 12.0 0.11 0.29 0.29 88 1008.9
20260510032047 50 257 9.0 14.0 0.10 0.28 0.28 88 1008.7
20260510031545 50 288 10.0 15.0 0.09 0.27 0.27 87 1008.9
20260510031046 50 279 12.0 18.0 0.07 0.25 0.25 86 1008.9
20260510030546 51 298 16.0 27.0 0.05 0.23 0.23 85 1009.0
20260510030048 51 281 17.0 27.0 0.00 0.18 0.18 85 1008.7
20260510025545 52 270 11.0 27.0 0.00 0.18 0.18 85 1008.5
20260510025046 52 292 6.0 17.0 0.00 0.18 0.18 87 1008.4
20260510024805 52 179 3.0 8.0 0.00 0.18 0.18 87 1007.8
20260510024046 52 180 4.0 8.0 0.00 0.18 0.18 87 1007.4
20260510023540 52 115 5.0 10.0 0.00 0.18 0.18 87 1007.5
20260510023040 52 145 5.0 11.0 0.00 0.18 0.18 87 1007.5
20260510022538 52 187 6.0 11.0 0.00 0.18 0.18 87 1007.5
20260510022039 52 178 6.0 11.0 0.00 0.18 0.18 87 1007.3
20260510021538 52 116 6.0 11.0 0.00 0.18 0.18 87 1007.3
20260510021306 52 165 5.0 11.0 0.00 0.18 0.18 87 1007.4
20260510020537 52 118 6.0 10.0 0.00 0.18 0.18 87 1007.2
20260510020026 52 167 7.0 12.0 0.00 0.18 0.18 86 1007.4
20260510015525 52 159 7.0 14.0 0.00 0.18 0.18 86 1007.4
20260510015249 52 176 7.0 14.0 0.00 0.18 0.18 86 1007.3
20260510014526 52 163 8.0 17.0 0.00 0.18 0.18 86 1007.0
20260510014024 52 153 9.0 18.0 0.00 0.18 0.18 86 1006.6
20260510013744 52 186 8.0 18.0 0.00 0.18 0.18 86 1006.4
20260510013020 52 140 8.0 15.0 0.00 0.18 0.18 86 1006.2
20260510012745 52 169 8.0 15.0 0.00 0.18 0.18 86 1006.4
20260510012014 52 150 7.0 14.0 0.00 0.18 0.18 86 1006.3
20260510011739 52 157 6.0 11.0 0.00 0.18 0.18 86 1006.4
20260510011016 52 164 6.0 12.0 0.00 0.18 0.18 86 1006.6
20260510010515 52 145 6.0 12.0 0.00 0.18 0.18 86 1006.6
20260510010014 52 147 7.0 13.0 0.00 0.18 0.18 86 1006.4
20260510005511 52 168 7.0 14.0 0.00 0.18 0.18 86 1006.3
20260510005011 52 152 7.0 14.0 0.00 0.18 0.18 85 1006.1
20260510004511 53 140 7.0 14.0 0.00 0.18 0.18 85 1006.2
20260510004012 53 178 6.0 13.0 0.00 0.18 0.18 85 1006.1
20260510003734 53 155 7.0 13.0 0.00 0.18 0.18 85 1006.0
20260510003007 53 137 7.0 12.0 0.00 0.18 0.18 85 1005.8
20260510002507 53 180 6.0 12.0 0.00 0.18 0.18 85 1005.8
20260510002008 53 152 6.0 12.0 0.00 0.18 0.18 85 1005.8
20260510001506 53 161 6.0 13.0 0.00 0.18 0.18 84 1005.9
20260510001007 53 187 7.0 14.0 0.00 0.18 0.18 84 1006.1
20260510000507 53 136 7.0 15.0 0.00 0.18 0.18 84 1006.0
20260510000008 53 148 6.0 15.0 0.00 0.18 0.18 84 1006.1
20260509235508 53 180 6.0 13.0 0.00 0.18 0.18 83 1006.2
20260509235007 54 179 7.0 13.0 0.00 0.18 0.18 83 1006.0
20260509234508 54 148 6.0 13.0 0.00 0.18 0.18 83 1006.0
20260509234234 54 159 6.0 13.0 0.00 0.18 0.18 83 1005.8
20260509233504 54 173 6.0 13.0 0.00 0.18 0.18 83 1005.8
20260509233005 54 183 6.0 11.0 0.00 0.18 0.18 83 1005.7
20260509232505 54 171 7.0 12.0 0.00 0.18 0.18 83 1005.6
20260509232231 54 185 7.0 15.0 0.00 0.18 0.18 83 1005.7
20260509231503 54 168 7.0 15.0 0.00 0.18 0.18 82 1005.8
20260509231000 55 184 7.0 16.0 0.00 0.18 0.18 82 1006.1
20260509230500 55 182 7.0 16.0 0.00 0.18 0.18 82 1005.9
20260509225958 55 167 8.0 15.0 0.00 0.18 0.18 82 1005.9
20260509225457 55 169 9.0 15.0 0.00 0.18 0.18 82 1006.0
20260509224957 55 184 8.0 15.0 0.00 0.18 0.18 81 1006.0
20260509224716 56 154 7.0 15.0 0.00 0.18 0.18 81 1006.1
20260509224219 56 171 7.0 12.0 0.00 0.18 0.18 81 1006.2
20260509223719 56 181 7.0 12.0 0.00 0.18 0.18 81 1006.2
20260509222952 56 153 7.0 17.0 0.00 0.18 0.18 81 1006.1
20260509222453 56 142 7.0 17.0 0.00 0.18 0.18 81 1006.0
20260509221952 56 145 6.0 14.0 0.00 0.18 0.18 80 1006.2
20260509221453 56 153 5.0 11.0 0.00 0.18 0.18 81 1006.3
20260509220953 56 167 6.0 13.0 0.00 0.18 0.18 80 1006.1
20260509220454 56 182 6.0 13.0 0.00 0.18 0.18 81 1006.1
20260509215949 56 165 6.0 15.0 0.00 0.18 0.18 82 1006.1
20260509215449 55 180 7.0 15.0 0.00 0.18 0.18 83 1006.1
20260509215209 54 170 7.0 14.0 0.00 0.18 0.18 83 1006.1
20260509214449 54 132 6.0 13.0 0.00 0.18 0.18 82 1005.9
20260509213949 55 194 6.0 11.0 0.00 0.18 0.18 83 1006.0
20260509213449 55 183 6.0 11.0 0.00 0.18 0.18 83 1006.0
20260509212949 54 111 6.0 14.0 0.00 0.18 0.18 84 1006.0
20260509212448 54 180 6.0 14.0 0.00 0.18 0.18 83 1006.0
20260509211948 54 154 6.0 13.0 0.00 0.18 0.18 83 1006.0
20260509211449 53 160 6.0 15.0 0.00 0.18 0.18 83 1005.9
20260509210949 53 159 6.0 15.0 0.00 0.18 0.18 83 1006.1
20260509210449 54 148 7.0 12.0 0.00 0.18 0.18 83 1006.3
20260509205948 54 183 8.0 19.0 0.00 0.18 0.18 83 1006.3
20260509205449 54 181 8.0 19.0 0.00 0.18 0.18 83 1006.4
20260509204949 54 178 8.0 17.0 0.00 0.18 0.18 83 1006.3
20260509204449 54 180 8.0 18.0 0.00 0.18 0.18 83 1006.2
20260509203950 53 167 7.0 18.0 0.00 0.18 0.18 84 1006.3
20260509203449 53 182 6.0 12.0 0.00 0.18 0.18 84 1006.4
20260509202949 53 173 7.0 12.0 0.00 0.18 0.18 84 1006.6
20260509202448 53 150 7.0 12.0 0.00 0.18 0.18 83 1006.6
20260509201949 54 155 7.0 15.0 0.00 0.18 0.18 83 1006.6
20260509201449 54 176 7.0 17.0 0.00 0.18 0.18 83 1006.7
20260509200950 54 153 6.0 17.0 0.00 0.18 0.18 82 1006.9
20260509200450 54 187 7.0 13.0 0.00 0.18 0.18 84 1007.0
20260509195949 53 203 7.0 13.0 0.00 0.18 0.18 83 1007.0
20260509195710 53 163 7.0 15.0 0.00 0.18 0.18 83 1007.0
20260509194950 53 198 8.0 17.0 0.00 0.18 0.18 83 1007.2
20260509194450 53 171 8.0 17.0 0.00 0.18 0.18 83 1007.2
20260509193948 53 188 7.0 15.0 0.00 0.18 0.18 85 1007.2
20260509193448 53 190 6.0 14.0 0.00 0.18 0.18 85 1007.1
20260509192947 52 213 6.0 15.0 0.00 0.18 0.18 85 1007.1
20260509192446 52 171 6.0 15.0 0.00 0.18 0.18 85 1007.2
20260509191944 52 198 5.0 14.0 0.00 0.18 0.18 85 1007.4
20260509191444 52 170 6.0 11.0 0.00 0.18 0.18 85 1007.5
20260509190945 52 186 6.0 11.0 0.00 0.18 0.18 85 1007.4
20260509190447 52 172 6.0 13.0 0.00 0.18 0.18 85 1007.5
20260509185944 52 240 6.0 14.0 0.00 0.18 0.18 85 1007.5
20260509185439 52 167 6.0 14.0 0.00 0.18 0.18 85 1007.6
20260509185425 52 172 6.0 16.0 0.00 0.18 0.18 85 1007.6
20260509184439 52 180 7.0 16.0 0.00 0.18 0.18 85 1007.6
20260509183939 52 173 6.0 12.0 0.00 0.18 0.18 85 1007.6
20260509183436 52 178 6.0 12.0 0.00 0.18 0.18 85 1007.6
20260509182936 52 188 6.0 12.0 0.00 0.18 0.18 84 1007.6
20260509182659 52 174 6.0 15.0 0.00 0.18 0.18 85 1007.5
20260509181938 52 196 6.0 15.0 0.00 0.18 0.18 85 1007.6
20260509181436 52 207 6.0 12.0 0.00 0.18 0.18 85 1007.7
20260509181149 52 221 6.0 13.0 0.00 0.18 0.18 85 1007.7
20260509181033 52 206 5.0 13.0 0.00 0.18 0.18 85 1007.6
20260509175940 52 182 5.0 10.0 0.00 0.18 0.18 85 1007.7
20260509175435 52 164 5.0 9.0 0.00 0.18 0.18 86 1007.8
20260509174934 52 183 5.0 10.0 0.00 0.18 0.18 86 1007.7
20260509174430 52 167 6.0 14.0 0.00 0.18 0.18 86 1007.6
20260509173928 51 177 7.0 15.0 0.00 0.18 0.18 85 1007.6
20260509173429 51 186 7.0 15.0 0.00 0.18 0.18 85 1007.5
20260509172928 51 147 7.0 15.0 0.00 0.18 0.18 86 1007.4
20260509172428 51 144 8.0 15.0 0.00 0.18 0.18 85 1007.5
20260509172149 52 180 8.0 14.0 0.00 0.18 0.18 85 1007.6
20260509171427 52 182 8.0 16.0 0.00 0.18 0.18 86 1007.5
20260509170926 52 177 9.0 16.0 0.00 0.18 0.18 86 1007.6
20260509170428 51 181 9.0 18.0 0.00 0.18 0.18 86 1007.4
20260509165926 51 155 8.0 18.0 0.00 0.18 0.18 86 1007.6
20260509165426 51 146 7.0 17.0 0.00 0.18 0.18 86 1007.5
20260509164924 51 144 8.0 17.0 0.00 0.18 0.18 86 1007.6
20260509164426 51 184 8.0 23.0 0.00 0.18 0.18 87 1007.7
20260509163925 51 144 7.0 23.0 0.00 0.18 0.18 87 1007.6
20260509163419 51 179 6.0 16.0 0.00 0.18 0.18 88 1007.6
20260509163405 50 180 7.0 16.0 0.00 0.18 0.18 88 1007.7
20260509162417 50 165 7.0 14.0 0.00 0.18 0.18 88 1007.8
20260509162140 50 173 8.0 14.0 0.00 0.18 0.18 88 1007.7
20260509161412 50 172 7.0 14.0 0.00 0.18 0.18 88 1007.7
20260509160909 50 185 7.0 13.0 0.00 0.18 0.18 89 1007.8
20260509160406 50 163 7.0 12.0 0.00 0.18 0.18 89 1007.8
20260509155905 50 176 7.0 14.0 0.00 0.18 0.18 89 1007.7
20260509155406 49 167 7.0 14.0 0.00 0.18 0.18 89 1007.8
20260509154906 49 169 6.0 12.0 0.00 0.18 0.18 89 1007.7
20260509154407 49 142 6.0 14.0 0.00 0.18 0.18 89 1007.9
20260509153904 49 171 6.0 15.0 0.00 0.18 0.18 89 1007.9
20260509153400 49 157 6.0 15.0 0.00 0.18 0.18 89 1007.9
20260509152900 49 138 7.0 14.0 0.01 0.18 0.18 89 1007.8
20260509152359 49 111 7.0 14.0 0.01 0.18 0.18 89 1007.8
20260509151858 49 162 7.0 15.0 0.01 0.18 0.18 89 1008.0
20260509151357 49 154 8.0 15.0 0.01 0.18 0.18 89 1007.9
20260509150857 49 152 8.0 15.0 0.01 0.18 0.18 90 1007.9
20260509150355 49 147 8.0 15.0 0.02 0.18 0.18 90 1007.8
20260509145853 49 157 7.0 16.0 0.02 0.19 0.18 90 1007.9
20260509145617 49 113 7.0 16.0 0.02 0.19 0.18 90 1007.9
20260509145117 48 159 7.0 14.0 0.02 0.20 0.18 90 1007.8
20260509144353 48 159 8.0 14.0 0.03 0.20 0.18 90 1007.9
20260509143850 48 163 8.0 17.0 0.03 0.20 0.18 90 1008.0
20260509143350 48 165 8.0 17.0 0.03 0.20 0.18 90 1008.0
20260509142849 48 160 8.0 17.0 0.03 0.19 0.17 90 1007.9
20260509142350 48 146 8.0 17.0 0.03 0.19 0.17 90 1008.0
20260509141847 48 146 7.0 16.0 0.03 0.19 0.17 90 1008.1
20260509141347 48 153 6.0 16.0 0.03 0.20 0.17 90 1008.1
20260509141108 48 156 5.0 10.0 0.04 0.20 0.17 90 1008.3
20260509140345 48 148 4.0 9.0 0.03 0.19 0.16 90 1008.2
20260509135845 48 167 5.0 12.0 0.03 0.20 0.16 90 1008.4
20260509135604 47 175 5.0 12.0 0.04 0.20 0.16 90 1008.5
20260509134841 47 150 5.0 12.0 0.04 0.20 0.16 90 1008.4
20260509134343 47 118 5.0 12.0 0.03 0.19 0.15 90 1008.4
20260509133837 47 124 4.0 9.0 0.03 0.20 0.15 90 1008.3
20260509133337 47 118 4.0 9.0 0.03 0.20 0.15 90 1008.3
20260509132835 47 125 3.0 8.0 0.03 0.20 0.14 90 1008.4
20260509132335 47 124 3.0 7.0 0.04 0.21 0.14 90 1008.5
20260509131833 47 149 3.0 8.0 0.05 0.22 0.14 90 1008.6
20260509131602 47 154 4.0 8.0 0.05 0.22 0.14 90 1008.6
20260509130836 47 150 5.0 10.0 0.05 0.22 0.13 90 1008.7
20260509125830 47 142 5.0 9.0 0.06 0.24 0.13 90 1008.7
20260509125551 47 144 6.0 14.0 0.06 0.24 0.12 90 1008.6
20260509124831 47 165 6.0 14.0 0.07 0.24 0.12 90 1008.6
20260509124329 47 195 6.0 11.0 0.08 0.24 0.12 90 1008.7
20260509123828 47 148 5.0 11.0 0.09 0.24 0.12 90 1008.5
20260509123328 47 148 5.0 11.0 0.10 0.24 0.12 90 1008.6
20260509122828 47 163 4.0 11.0 0.09 0.23 0.11 89 1008.7
20260509122329 47 123 4.0 9.0 0.09 0.22 0.10 89 1008.9
20260509121825 46 157 4.0 9.0 0.08 0.21 0.09 89 1008.9
20260509121323 46 126 4.0 9.0 0.09 0.21 0.09 89 1008.9
20260509120820 46 169 4.0 7.0 0.08 0.20 0.08 89 1008.9
20260509120540 46 157 4.0 9.0 0.08 0.20 0.08 89 1009.0
20260509115817 46 111 5.0 9.0 0.07 0.19 0.07 89 1009.1
20260509115315 46 107 4.0 9.0 0.06 0.18 0.06 89 1009.2
20260509114815 46 159 4.0 9.0 0.05 0.17 0.05 89 1009.2
20260509114309 46 153 4.0 9.0 0.04 0.16 0.04 88 1009.2
20260509113805 46 155 3.0 7.0 0.03 0.15 0.04 88 1009.2
20260509113744 46 152 4.0 9.0 0.02 0.14 0.02 88 1009.2
20260509112804 46 131 3.0 9.0 0.01 0.13 0.02 88 1009.1
20260509112307 46 148 3.0 8.0 0.01 0.13 0.01 88 1009.1
20260509111805 46 124 4.0 8.0 0.01 0.13 0.01 88 1009.0
20260509111302 46 126 4.0 9.0 0.00 0.12 0.00 87 1009.1
20260509110801 46 134 5.0 11.0 0.00 0.12 0.00 87 1008.9
20260509110302 46 171 4.0 11.0 0.00 0.12 0.00 87 1008.9
20260509105800 46 125 5.0 10.0 0.00 0.12 0.00 87 1008.9
20260509105301 46 134 4.0 10.0 0.00 0.12 0.00 87 1008.7
20260509104758 46 127 5.0 10.0 0.00 0.12 0.00 87 1008.7
20260509104257 46 153 5.0 10.0 0.00 0.12 0.00 86 1008.7
20260509103758 46 158 5.0 9.0 0.00 0.12 0.00 86 1008.6
20260509103254 46 169 5.0 9.0 0.00 0.12 0.00 86 1008.5
20260509102750 46 146 5.0 10.0 0.00 0.12 0.00 86 1008.4
20260509102246 46 130 4.0 10.0 0.00 0.12 0.00 86 1008.5
20260509101747 46 117 4.0 8.0 0.00 0.12 0.00 86 1008.3
20260509101243 46 136 4.0 11.0 0.00 0.12 0.00 85 1008.4
20260509100746 46 130 5.0 11.0 0.00 0.12 0.00 85 1008.4
20260509100237 45 128 5.0 10.0 0.00 0.12 0.00 85 1008.4
20260509095738 45 126 5.0 12.0 0.00 0.12 0.00 85 1008.4
20260509095233 45 122 4.0 12.0 0.00 0.12 0.00 85 1008.4
20260509094730 45 128 4.0 8.0 0.00 0.12 0.00 85 1008.3
20260509094231 45 144 4.0 8.0 0.00 0.12 0.00 84 1008.2
20260509093731 44 150 3.0 8.0 0.00 0.12 0.00 84 1008.3
20260509093447 44 142 4.0 9.0 0.00 0.12 0.00 84 1008.5
20260509092729 44 120 4.0 9.0 0.00 0.12 0.00 84 1008.2
20260509092227 44 118 4.0 7.0 0.00 0.12 0.00 84 1008.3
20260509091725 44 112 4.0 8.0 0.00 0.12 0.00 84 1008.2
20260509091223 45 109 3.0 8.0 0.00 0.12 0.00 84 1008.3
20260509090719 45 117 3.0 9.0 0.00 0.12 0.00 84 1008.3
20260509090217 45 132 3.0 9.0 0.00 0.12 0.00 83 1008.4
20260509085939 46 123 3.0 8.0 0.00 0.12 0.00 83 1008.5
20260509085211 46 121 3.0 8.0 0.00 0.12 0.00 83 1008.6
20260509084713 46 122 3.0 6.0 0.00 0.12 0.00 83 1008.7
20260509084215 45 114 3.0 5.0 0.00 0.12 0.00 83 1008.7
20260509083933 45 128 2.0 5.0 0.00 0.12 0.00 83 1008.7
20260509083205 45 123 3.0 7.0 0.00 0.12 0.00 83 1008.6
20260509082659 45 117 3.0 7.0 0.00 0.12 0.00 83 1008.9
20260509082417 46 103 3.0 5.0 0.00 0.12 0.00 82 1008.9
20260509081916 46 141 3.0 7.0 0.00 0.12 0.00 82 1009.1
20260509081406 46 152 3.0 7.0 0.00 0.12 0.00 82 1009.1
20260509080643 46 153 3.0 7.0 0.00 0.12 0.00 82 1009.2
20260509080125 46 128 2.0 4.0 0.00 0.12 0.00 82 1009.2
20260509075612 46 127 2.0 7.0 0.00 0.12 0.00 82 1009.2
20260509075112 45 122 3.0 7.0 0.00 0.12 0.00 82 1009.2
20260509074834 45 134 4.0 8.0 0.00 0.12 0.00 81 1009.2
20260509074329 45 115 4.0 8.0 0.00 0.12 0.00 82 1009.1
20260509073603 45 111 4.0 7.0 0.00 0.12 0.00 81 1009.2
20260509073102 45 121 4.0 7.0 0.00 0.12 0.00 81 1009.1
20260509072600 45 121 4.0 8.0 0.00 0.12 0.00 81 1009.3
20260509072047 45 121 4.0 8.0 0.00 0.12 0.00 80 1009.3
20260509071547 45 118 3.0 7.0 0.00 0.12 0.00 80 1009.2
20260509071047 45 124 3.0 7.0 0.00 0.12 0.00 80 1009.3
20260509070544 45 125 4.0 8.0 0.00 0.12 0.00 79 1009.4
20260509070043 45 128 4.0 8.0 0.00 0.12 0.00 79 1009.3
20260509065811 45 118 3.0 7.0 0.00 0.12 0.00 78 1009.5
20260509065042 45 116 2.0 7.0 0.00 0.12 0.00 77 1009.4
20260509064542 45 120 2.0 7.0 0.00 0.12 0.00 77 1009.6
20260509064040 45 118 3.0 9.0 0.00 0.12 0.00 76 1009.7
20260509063541 45 114 3.0 9.0 0.00 0.12 0.00 75 1009.6
20260509063039 45 118 3.0 7.0 0.00 0.12 0.00 75 1009.7
20260509062537 44 106 1.0 6.0 0.00 0.12 0.00 75 1009.6
20260509062238 42 104 0.0 0.0 0.00 0.12 0.00 74 1009.7
20260509062124 42 104 0.0 3.0 0.00 0.12 0.00 75 1009.3
20260509061037 43 105 0.0 3.0 0.00 0.12 0.00 73 1010.0
20260509060537 43 105 0.0 3.0 0.00 0.12 0.00 74 1010.0
20260509060259 43 103 0.0 2.0 0.00 0.12 0.00 72 1009.9
20260509055522 44 103 1.0 3.0 0.00 0.12 0.00 70 1010.0
20260509055512 44 103 2.0 7.0 0.00 0.12 0.00 69 1010.0
20260509054519 44 99 3.0 8.0 0.00 0.12 0.00 69 1010.1
20260509054015 44 109 3.0 8.0 0.00 0.12 0.00 68 1009.9
20260509053515 44 87 2.0 7.0 0.00 0.12 0.00 69 1010.0
20260509053010 44 114 1.0 5.0 0.00 0.12 0.00 68 1010.1
20260509052726 44 86 1.0 5.0 0.00 0.12 0.00 69 1010.1
20260509051949 43 80 1.0 7.0 0.00 0.12 0.00 70 1010.1
20260509051448 43 142 1.0 7.0 0.00 0.12 0.00 72 1010.0
20260509050951 42 109 1.0 3.0 0.00 0.12 0.00 71 1010.0
20260509050446 42 108 1.0 3.0 0.00 0.12 0.00 71 1009.9
20260509045946 42 111 1.0 4.0 0.00 0.12 0.00 71 1010.1
20260509045701 42 105 2.0 5.0 0.00 0.12 0.00 71 1010.0
20260509044934 42 65 2.0 5.0 0.00 0.12 0.00 71 1010.0
20260509044659 41 84 2.0 4.0 0.00 0.12 0.00 72 1009.9
20260509043934 41 83 1.0 4.0 0.00 0.12 0.00 73 1009.8
20260509043435 41 110 1.0 3.0 0.00 0.12 0.00 73 1009.8
20260509043201 40 117 0.0 2.0 0.00 0.12 0.00 74 1009.9
20260509042430 40 80 0.0 2.0 0.00 0.12 0.00 74 1009.9
20260509042148 40 82 0.0 0.0 0.00 0.12 0.00 74 1009.7
20260509041645 41 82 0.0 0.0 0.00 0.12 0.00 73 1009.9
20260509041140 40 83 0.0 0.0 0.00 0.12 0.00 74 1009.9
20260509040416 40 82 0.0 0.0 0.00 0.12 0.00 74 1010.1
20260509040131 41 83 0.0 0.0 0.00 0.12 0.12 73 1010.1
20260509035634 41 83 0.0 3.0 0.00 0.12 0.12 73 1010.2
20260509035124 41 83 0.0 3.0 0.00 0.12 0.12 74 1010.0
20260509034352 41 74 0.0 3.0 0.00 0.12 0.12 74 1009.9
20260509033850 41 72 0.0 1.0 0.00 0.12 0.12 74 1010.0